Location: ???????
(55.3754°N, 39.3545°E)
Time: 20:32:55
(UTC+00:00)

Feng Yun 1-1 Rocket - Pass Details

Date: 14 April 2026
Orbit: 829 x 933 km, 99.0° (Epoch: 11 May)

Event Time Altitude Azimuth Distance (km) Brightness Sun altitude
Rises 17:00:33 0° 157° (SSE) 3,451 6.9 -5.4°
Reaches altitude 10° 17:02:57 10° 157° (SSE) 2,503 6.2 -5.7°
Maximum altitude 17:08:30 82° 71° (ENE) 866 4.3 -6.4°
Drops below altitude 10° 17:13:58 10° 344° (NNW) 2,465 7.3 -7.1°
Sets 17:16:18 0° 344° (NNW) 3,396 8.1 -7.4°
